Location: Unspecified
(0.0000°N, 0.0000°E)
Time: 16:18:10
(UTC+00:00)

Courier 1B - Pass Details

Date: 19 November 2019
Orbit: 963 x 1209 km, 28.3° (Epoch: 12 December)

Event Time Altitude Azimuth Distance (km) Brightness Sun altitude
Rises 02:13:27 0° 245° (WSW) 4,073 - -48.8°
Reaches altitude 10° 02:16:22 10° 247° (WSW) 3,086 - -48.2°
Maximum altitude 02:23:58 69° 329° (NNW) 1,200 - -46.6°
Drops below altitude 10° 02:31:07 10° 52° (NE) 2,908 - -45.0°
Exits shadow 02:31:46 - 53° (NE) 3,129 10.3 -44.8°
Sets 02:33:47 0° 55° (NE) 3,826 10.9 -44.4°
